Regional Weather Roundup
Issued by NWS

Home | Current Version | Previous Version | Text Only | Print | Product List | Glossary On
Versions: 1 2 3 4 5 6 7 8 9 10 11 12 13 14 15 16 17 18 19 20 21 22 23 24 25 26 27
000
ASUS45 KTFX 251210
RWRMT
Montana Regional Weather Roundup
National Weather Service Great Falls MT
600 AM MDT WED MAY 25 2022

NOTE: "FAIR" indicates few or no clouds below 12,000 feet with no
significant weather and/or obstructions to visibility.

MTZ001>007-043-251300-
West of the divide

CITY           SKY/WX    TMP DP  RH WIND       PRES   REMARKS
Kalispell      LGT RAIN  47  43  86 CALM      29.96R
Missoula       CLOUDY    48  42  80 CALM      29.99R
Butte          CLOUDY    44  32  62 SE6       30.02F
Anaconda         N/A     46  30  53 SE6       30.02S
Deer Lodge       N/A     48  34  57 CALM      30.03S
Hamilton       CLOUDY    52  37  58 S6        29.98F
Mullan Pass    CLOUDY    36  33  89 SW5       29.98F WCI  32
Plains           N/A     48  32  53 CALM      30.00S
$$

MTZ008-052>055-251300-
Southwest Montana

CITY           SKY/WX    TMP DP  RH WIND       PRES   REMARKS
Bozeman        CLOUDY    44  37  76 E5        30.01F
Dillon         MOCLDY    45  32  60 SW12      30.02R
Ennis          CLOUDY    45  30  57 S13       30.07R
Three Forks      N/A     43  36  75 CALM      29.99S
Twin Bridges   CLOUDY    45  34  65 S7        30.03S
W Yellowstone  CLOUDY    30  30 100 CALM      30.10S
$$

MTZ009-010-012-014-046-048-049-054-251300-
East Slopes and Central Montana

CITY           SKY/WX    TMP DP  RH WIND       PRES   REMARKS
Cut Bank       CLOUDY    47  34  60 W12       29.89S
Great Falls    CLOUDY    50  33  52 SW14      29.92F
Helena         CLOUDY    51  33  50 CALM      29.97S
Malmstrom AFB  MOCLDY    42  35  75 SW7       29.93F
Augusta        MOCLDY    46  30  55 SW6       29.93S
Bowmans Corner MOCLDY    47  32  56 SW12      29.92F
Choteau          N/A     50  28  43 SW7       29.91S
Fairfield      MOCLDY    50  30  45 SW12      29.91F
Power          MOCLDY    40  30  67 SW7       29.91F
Raynesford     MOCLDY    50  28  42 S14       29.95S
Ulm            CLOUDY    50  35  55 SW12      29.93S
$$

MTZ011-013-016-021-045-047-050-051-251300-
North Central Montana

CITY           SKY/WX    TMP DP  RH WIND       PRES   REMARKS
Havre          MOCLDY    48  33  56 SW12      29.89R
Lewistown      CLOUDY    37  31  78 SE6       29.96R WCI  32
Chinook          N/A     43  39  87 CALM      29.90R
Denton         MOCLDY    40  34  79 S8        29.91S WCI  35
N Bar Ranch    CLOUDY    39  32  75 NW6       29.97R WCI  35
Stanford       MOCLDY    48  29  47 W14       29.96S
Winifred       MOCLDY    47  32  55 W8        29.93R
$$

MTZ017>020-022>027-061-062-251300-
Northeast Montana

CITY           SKY/WX    TMP DP  RH WIND       PRES   REMARKS
Glasgow        CLEAR     47  41  80 SE10      29.89S
Culbertson     MOCLDY    43  43 100 E6        29.93S
Glendive       PTCLDY    45  41  86 S9        29.96S
Jordan           N/A     38  32  79 CALM      29.92S
Malta          CLEAR     39  36  87 CALM      29.87R
Plentywood     CLOUDY    50  41  71 SE8       29.93S
Sidney         CLEAR     44  41  89 S5        29.96S
Wolf Point     PTCLDY    43  37  79 E5        29.92S
$$

MTZ028>42-056>058-251300-
Southcentral and southeast Montana

CITY           SKY/WX    TMP DP  RH WIND       PRES   REMARKS
Baker          CLEAR     40  37  89 E7        29.99S
Big Timber     CLOUDY    46  34  61 W12       30.00F
Billings       MOCLDY    46  36  68 SW12      29.97S
Forsyth          N/A     45  39  81 CALM      29.95S
Hardin         SUNNY     37  34  87 CALM      29.97S
Harlowton      CLOUDY    40  29  66 W12       29.98S WCI  32
Laurel           N/A     48  37  66 SW16      29.98S
Livingston     CLOUDY    41  32  70 NW13      29.99F
Miles City     CLEAR     44  40  85 S10       29.95S
Roundup          N/A     39  30  70 MISG      29.88R
$$

Regional Reports...Dakotas/MN

CITY           SKY/WX    TMP DP  RH WIND       PRES   REMARKS
Williston      SUNNY     46  42  86 S9        29.95F
Minot          MOCLDY    48  41  76 SE5       30.02R
Dickinson      CLEAR     44  39  82 S10       30.00R
Beach          FAIR      43  43 100 S10       29.99S
Bowman         FAIR      41  41 100 S9        30.01S
Crosby         FAIR      48  43  81 S10       29.95F
Glen Ullin     FAIR      39  37  93 CALM      30.03S
Hettinger      CLEAR     39  36  89 CALM      30.03R
Tioga          FAIR      46  46 100 S9        30.00S
Watford City   FAIR      48  45  87 SE10      29.98F
Bismarck       CLEAR     47  43  86 NE3       30.05F
Grand Forks    PTSUNNY   50  44  80 E5        30.07S
Fargo          CLOUDY    51  41  68 CALM      30.07R
Buffalo SD       N/A     43  39  86 SE6       29.99S
Rapid City     CLEAR     37  34  89 NW7       30.02S WCI  32
Intl Falls     CLOUDY    49  43  80 SE5       30.13S
Duluth         CLOUDY    50  36  58 E9        30.16R
Minneapolis    LGT RAIN  49  46  90 NE13      30.07S
$$

Regional Reports...WY/CO/ID/WA/OR

CITY           SKY/WX    TMP DP  RH WIND       PRES   REMARKS
Buffalo WY     CLEAR     40  26  57 SW9       30.03R WCI  34
Cody           CLOUDY    39  33  79 CALM      30.05S
Gillette       CLEAR     41  36  82 CALM      30.03R
Powell         MOCLDY    41  30  65 SE10      30.03R
Sheridan       CLEAR     34  26  72 CALM      30.00S
Yellowstone La   N/A     27  26  96 CALM      30.16R
Boise          PTCLDY    52  34  50 SE7       30.01R
Couer d`Alene  CLOUDY    49  46  90 N3        29.96S
Idaho Falls    PTCLDY    41  32  70 W3        30.08R
Salmon         MOCLDY    44  36  73 CALM      30.04R
Spokane        CLOUDY    52  42  69 SE6       29.94S
Seattle        CLOUDY    51  50  96 S7        29.98S
Portland       LGT RAIN  57  54  89 SE7       30.01S FOG
$$

Other Reports

CITY           SKY/WX    TMP DP  RH WIND       PRES   REMARKS
Atlanta        CLOUDY    69  64  84 E13       30.12F
Anchorage      MOCLDY    45  37  73 VRB5      29.98S
Boston         MOSUNNY   55  47  74 S6        30.40R
Chicago        LGT RAIN  55  50  83 E9        29.98S
Fairbanks      MOCLDY    41  34  76 CALM      29.80R
Houston        CLOUDY    64  61  90 NW9       29.76S
Las Vegas NV   CLEAR     74  17  11 N6        29.88R
Phoenix AZ     PTCLDY    76  40  27 CALM      29.79R
Salt Lake City PTCLDY    51  27  39 SE7       30.09R
San Diego      PTCLDY    56  54  93 CALM      29.86S
San Francisco  CLEAR     63  48  58 CALM      29.78R
Washington Dul CLOUDY    59  52  77 E8        30.34R
$$

Regional Reports...Alberta

CITY           SKY/WX    TMP DP  RH WIND       PRES   REMARKS
Calgary        MOCLDY    48  32  53 SW6       29.79F
Cardston         N/A     50  30  46 W7          N/A
Crowsnest Pass   N/A     45  34  65 W5          N/A
Del Bonita       N/A     43  36  75 SW8         N/A
Fort McMurray  CLOUDY    43  36  75 E2        29.83S
High Level     CLEAR     36  36 100 VRB2      29.84F
Lethbridge     MOCLDY    46  34  61 SW10      29.84S
Medicine Hat   MOCLDY    46  37  71 SW6       29.82F
Milk River       N/A     39  34  81 NW9         N/A  WCI  33
Onefour          N/A     46  36  66 VRB3        N/A
Pincher Creek  CLOUDY    48  32  53 W14       29.89R
Raymond          N/A     48  34  57 SW10        N/A
Fort Smith NWT PTCLDY    32  25  74 NE2       29.92F
$$

Regional Reports...Saskatchewan

CITY           SKY/WX    TMP DP  RH WIND       PRES   REMARKS
Assiniboia       N/A     45  34  65 SE8         N/A
Coronach         N/A     46  36  66 SE8         N/A
Cypress Hills    N/A     46  27  46 NW2         N/A
Estevan        PTCLDY    50  45  81 SE8       29.95F
Moose Jaw        N/A     52  36  54 S14         N/A
Prince Albert  MOCLDY    50  43  76 E5        29.81S
Regina         PTCLDY    45  39  81 SE9       29.89S
Rockglen         N/A     45  34  65 S8          N/A
Saskatoon      MOCLDY    43  36  75 SE5       29.78F
Swift Current  CLEAR     48  34  57 S12       29.82F
Uranium City     N/A     41  21  45 NE5         N/A
Val Marie        N/A     39  32  75 S2          N/A
$$



USA.gov is the U.S. government's official web portal to all federal, state and local government web resources and services.